Harare Kutsaga, Zimbabwe

11:45 PM CAT on October 01, 2016 (GMT +0200)
Harare International

Weather History for FVHA - November, 2012

Change the Weather History Date:

Thursday, November 22, 2012

  Actual Average Record
Temperature  
Mean Temperature 75 °F -  
Max Temperature 85 °F 79 °F 91 °F (2006)
Min Temperature 64 °F 60 °F 42 °F (2003)
Cooling Degree Days 10    
Growing Degree Days 25 (Base 50)    
Moisture  
Dew Point 59 °F    
Average Humidity 61    
Maximum Humidity 83    
Minimum Humidity 31    
Precipitation  
Precipitation 0.00 in - - ()
Sea Level Pressure  
Sea Level Pressure 30.13 in    
Wind  
Wind Speed 8 mph ()    
Max Wind Speed 15 mph    
Max Gust Speed 26 mph    
Visibility 10.6 miles    
Events Rain , Thunderstorm    
Averages and records for this station are not official NWS values.
T = Trace of Precipitation, MM = Missing Value Source: Averaged Metar Reports

Daily Weather History Graph

Daily Weather History Graph

Search for Another Location

Airport or City:

Trip Planner

Search our weather history database for the weather conditions in past years. The results will help you decide how hot, cold, wet, or windy it might be!

Date:

Astronomy

Nov. 22, 2012 Rise Set
Actual Time 5:10 AM CAT 6:13 PM CAT
Civil Twilight 4:47 AM CAT 6:36 PM CAT
Nautical Twilight 4:19 AM CAT 7:04 PM CAT
Astronomical Twilight 3:50 AM CAT 7:32 PM CAT
Moon 1:16 PM CAT (11/22) 12:52 AM CAT (11/22)
Length of Visible Light 13h 49m
Length of Day
13h 02m
Waxing Gibbous, 68% of the Moon is Illuminated
Nov 22
Waxing Gibbous
Nov 28
Full
Dec 6
Last Quarter
Dec 13
New
Dec 20
First Quarter

Hourly Weather History & Observations

Time (CAT) Temp. Heat Index Dew Point Humidity Pressure Visibility Wind Dir Wind Speed Gust Speed Precip Events Conditions
1:00 AM 69.8 °F - 53.6 °F 56% 30.06 in - ENE 9.2 mph - N/A   Clear
2:00 AM 68 °F - 55 °F 54%  in 19 mi ENE 10.4 mph - -  
2:00 AM 68.0 °F - 55.4 °F 64% 30.06 in - ENE 10.4 mph - N/A   Clear
5:00 AM 66.2 °F - 57.2 °F 73% 30.09 in - East 8.1 mph - N/A   Clear
6:00 AM 66.2 °F - 59.0 °F 78% 30.15 in - East 8.1 mph - N/A   Clear
7:00 AM 71.6 °F - 60.8 °F 69% 30.18 in - East 9.2 mph - N/A   Clear
8:00 AM 75 °F - 61 °F 52%  in 19 mi ESE 11.5 mph - -   Clear
8:00 AM 75.2 °F - 60.8 °F 61% 30.18 in - ESE 11.5 mph - N/A   Clear
9:00 AM 78.8 °F - 60.8 °F 54% 30.18 in - East 10.4 mph - N/A   Clear
10:00 AM 80.6 °F 81.5 °F 60.8 °F 51% 30.21 in 6.2 mi East 10.4 mph - N/A   Scattered Clouds
11:00 AM 78.8 °F - 60.8 °F 54% 30.18 in 6.2 mi SSE 9.2 mph - N/A Rain Light Rain Showers
12:00 PM 82.4 °F 82.5 °F 59.0 °F 45% 30.12 in 6.2 mi SE 8.1 mph - N/A   Scattered Clouds
1:00 PM 84.2 °F 83.8 °F 59.0 °F 42% 30.09 in - ESE 8.1 mph - N/A   Clear
2:00 PM 83 °F - 58 °F 31%  in 19 mi SSE 8.1 mph - -   Partly Cloudy
2:00 PM 82.4 °F 82.0 °F 57.2 °F 42% 30.06 in - SSE 8.1 mph 19.6 mph N/A   Clear
3:00 PM 82.4 °F 81.7 °F 55.4 °F 39% 30.06 in - South 9.2 mph - N/A   Clear
4:00 PM 71.6 °F - 60.8 °F 69% 30.06 in 6.2 mi East 15.0 mph 26.5 mph N/A Rain , Thunderstorm Light Thunderstorms and Rain
5:00 PM 71.6 °F - 59.0 °F 64% 30.12 in 6.2 mi WNW 11.5 mph - N/A Thunderstorm Thunderstorm
8:00 PM 67 °F - 62 °F 78%  in 12 mi North 6.9 mph - - Rain Light Rain
8:00 PM 68.0 °F - 62.6 °F 83% 30.12 in 6.2 mi North 6.9 mph - N/A Rain Light Rain
9:00 PM 66.2 °F - 60.8 °F 83% 30.15 in - SE 4.6 mph - N/A   Clear
10:00 PM 66.2 °F - 59.0 °F 78% 30.18 in - East 5.8 mph - N/A   Clear
11:00 PM 64.4 °F - 59.0 °F 83% 30.15 in - East 6.9 mph - N/A   Clear